User: anonymous   Login
Location: Zlin
(49.2330°N, 17.6670°E)
Time: 01:33:00
(UTC+01:00)
Language:

XW-2A - Orbit

View from above orbital plane
View from above orbital plane
View from above satellite
View from above satellite

Ground track
Ground track

The orbit data is extracted from the following two-line orbital elements,

1 40903U 15049E   23033.44033705  .00073266  00000-0  57242-3 0  9999
2 40903  97.1427  98.9900 0005304 343.7326 139.6729 15.71412145415113
Epoch (UTC): 02 February 2023 10:34:05
Eccentricity: 0.0005304
inclination: 97.1427°
perigee height: 351 km
apogee height: 358 km
right ascension of ascending node: 98.9900°
argument of perigee: 343.7326°
revolutions per day: 15.71412145
mean anomaly at epoch: 139.6729°
orbit number at epoch: 41511

The dashed part of the orbit path shows where the satellite is in the earth's shadow,  

DLR